Regional Weather Roundup
Issued by NWS Wakefield, VA

Home | Current Version | Previous Version | Text Only | Print | Product List | Glossary Off
Versions: 1 2 3 4 5 6 7 8 9 10 11 12 13 14 15 16 17 18 19 20 21 22 23 24 25 26 27 28 29 30 31 32 33 34 35 36 37 38 39 40 41 42 43 44 45 46 47 48 49 50

000
ASUS41 KAKQ 030315
RWRAKQ

REGIONAL WEATHER ROUNDUP
NATIONAL WEATHER SERVICE WAKEFIELD VA
1100 PM EDT SUN AUG 02 2015

Note: "fair" indicates few or no clouds below 12,000 feet with no
significant weather and/or obstructions to visibility. * = Denotes
station may not report precipitation (e.g., rain,snow,etc.),
thunder or fog.

VAZ042-051-052>054-056-030400-
NORTHERN VIRGINIA

CITY           SKY/WX    TMP DP  RH WIND       PRES   REMARKS
WASH NATIONAL  CLEAR     78  62  57 S8        29.91F
DULLES         CLEAR     71  62  73 CALM      29.91F
FORT BELVOIR   NOT AVBL
QUANTICO       NOT AVBL
FREDERICKSBRG* CLEAR     70  67  89 CALM      29.92S
STAFFORD*      CLEAR     64  62  94 CALM      29.97S
WARRENTON      CLEAR     64  63  97 CALM      29.92S
CULPEPER*      CLEAR     64  63  95 CALM      29.94S
MANASSAS*      CLEAR     68  66  94 CALM      29.92S
LEESBURG*      CLEAR     72  64  78 SW5       29.92F
WINCHESTER     CLEAR     73  61  64 SW3       29.93S
FRONT ROYAL*   FAIR      72  63  73 S5        29.92S
LURAY*         FAIR      70  64  83 CALM      29.95S
$$

VAZ048-049-060>072-079>083-030400-
CENTRAL AND SOUTH CENTRAL VIRGINIA

CITY           SKY/WX    TMP DP  RH WIND       PRES   REMARKS
RICHMOND       PTCLDY    74  63  68 CALM      29.93F
CHESTERFIELD*  FAIR      68  54  60 CALM      29.95F
PETERSBURG*    CLEAR     67  67 100 CALM      29.95S
HANOVER        CLEAR     67  65  93 CALM      29.95F
TAPPAHANNOCK*  CLEAR     69  65  88 CALM      29.94F
QUINTON*       FAIR      70  68  92 CALM      29.93F
CHARLOTTSVILLE CLEAR     70  64  81 SW3       29.94F
GORDONSVILLE*  FAIR      64  63  94 CALM      29.94F
ORANGE*        CLEAR     66  64  94 CALM      29.95F
LOUISA*        CLEAR     64  61  88 CALM      29.93F
BUMPASS*       FAIR      65  64  96 MISG      29.94S
FARMVILLE*     CLEAR     64  62  91 CALM      29.94S
CREWE*         FAIR     N/A N/A N/A CALM      29.95S
FORT PICKETT*  FAIR      68  62  81 CALM      29.95F
CHASE CITY*    FAIR      69  66  92 CALM      29.95S
CLARKSVILLE*   FAIR      66  64  94 CALM      29.94S
SOUTH HILL*    CLEAR     67  62  84 CALM      30.00F
LAWRENCEVILLE* FAIR      70  64  83 CALM      29.94F
EMPORIA*       CLEAR     64  64 100 CALM      29.95F
$$

VAZ088>098-030400-
SOUTHEAST VIRGINIA

CITY           SKY/WX    TMP DP  RH WIND       PRES   REMARKS
NORFOLK        PTCLDY    79  73  82 SE5       29.92F
VIRGINIA BEACH PTCLDY    78  74  87 CALM      29.92S
NORFOLK NAVAL  MOCLDY    74  70  87 SE3       29.93F
WEST POINT*    CLEAR     72  69  88 CALM      29.95F
SALUDA*        FAIR      71  68  92 CALM      29.93F
NEWPORT NEWS   PTCLDY    71  68  90 N3        29.92F
LANGLEY AFB    CLEAR     74  69  86 CALM      29.91F
FORT EUSTIS    PTCLDY    74  74 100 CALM      29.90F
WILLIAMSBURG*  PTCLDY    73  72  94 CALM      29.94F
HR EXEC AP*    FAIR      70  64  83 CALM      29.94F
FRANKLIN*      PTCLDY    71  67  89 CALM      29.93F
WAKEFIELD      PTCLDY    71  68  90 CALM      29.93F
$$

VAZ020-022-025-037-045-030400-
WEST CENTRAL AND SOUTHWEST VIRGINIA

CITY           SKY/WX    TMP DP  RH WIND       PRES   REMARKS
STAUNTON*      CLEAR     67  61  81 CALM      29.99S
WAYNESBORO*    FAIR      66  59  79 SW6       29.98F
HOT SPRINGS VA CLEAR     65  49  57 SW8       30.09S
LYNCHBURG      CLEAR     64  61  90 CALM      29.98F
DANVILLE       CLEAR     67  63  87 CALM      29.95S
SOUTH BOSTON*  FAIR      67  65  95 CALM      29.94S
MARTINSVILLE   PTCLDY    64  64 100 CALM      29.99S
ROANOKE        CLEAR     70  60  70 NE5       29.99F
BLACKSBURG     CLEAR     63  58  85 CALM      30.05F
DUBLIN*          N/A     62  60  94 CALM      30.03F
MARION*        MOCLDY    64  60  87 CALM      30.06F
HILLSVILLE*    CLEAR     67  58  73 E6        30.04F
RICHLANDS*     FAIR      70  57  62 CALM      30.03F
WISE*          PTCLDY    70  54  56 CALM      30.04F
ABINGDON*      PTCLDY    69  58  69 CALM      30.00S
$$

MDZ021>025-VAZ099-100-030400-
SOUTHERN MARYLAND AND THE DELMARVA PENINSULA

CITY           SKY/WX    TMP DP  RH WIND       PRES   REMARKS
PATUXENT RIVER CLEAR     66  63  90 SW3       29.92F
BAY BRIDGE APT   N/A     77  61  57 SW5       29.91S
LEONARDTOWN    CLEAR     66  63  88 CALM      29.95F
DOVER          PTCLDY    73  67  82 S5        29.89F
GEORGETOWN     PTCLDY    70  67  90 CALM      29.92F
EASTON         CLEAR     74  66  76 CALM      29.95S
CAMBRIDGE      CLEAR     72  66  83 CALM      29.92F
SALISBURY      PTCLDY    72  70  93 CALM      29.92F
OCEAN CITY     MOCLDY    75  72  90 CALM      29.92F
WALLOPS ISLAND PTCLDY    74  73  97 SW5       29.93F
ACCOMACK*      CLEAR     72  70  94 CALM      29.92F FOG
$$

NCZ012>017-030>032-030400-
NORTH CENTRAL AND EASTERN NORTH CAROLINA

CITY           SKY/WX    TMP DP  RH WIND       PRES   REMARKS
ROANOKE RAPIDS FAIR      70  64  83 CALM      29.94F
RALEIGH        MOCLDY    73  61  65 CALM      29.95S
ELIZABETH CITY CLOUDY    76  72  87 SW6       29.94R
AHOSKIE*       CLEAR     71  67  85 CALM      29.95F
EDENTON*         N/A     74  71  91 CALM      29.95S
CURRITUCK*     CLOUDY    76  68  76 CALM      29.94S
KILL DEVIL HLS PTCLDY    81  72  74 W5        29.94R
MANTEO         PTCLDY    80  73  80 W8        29.95S
CAPE HATTERAS  CLEAR     80  73  79 SW13G21   29.95F
TARBORO*       LGT RAIN  73  69  87 E7        29.96S
GOLDSBORO      NOT AVBL
WASHINGTON     CLEAR     78  73  87 CALM      29.95F
GREENVILLE     PTCLDY    79  73  83 CALM      29.96S
NEW BERN       CLEAR     75  71  87 S3        29.96S
WILMINGTON     PTCLDY    78  72  81 CALM      29.94R
$$

VAZ048-030400-
ELSEWHERE

CITY           SKY/WX    TMP DP  RH WIND       PRES   REMARKS
HARRISBURG PA  PTCLDY    78  61  55 SW10G17   29.86F
BALTIMORE      PTCLDY    73  60  63 SW3       29.90S
ANNAPOLIS      CLEAR     75  61  61 CALM      29.90S
ANDREWS AFB    NOT AVBL
PHILADELPHIA   PTCLDY    78  62  57 S8        29.89F
HENDERSON NC   PTCLDY    71  60  68 CALM      29.95F
GREENSBORO     PTCLDY    74  58  57 CALM      29.95S
ROCKY MOUNT    PTCLDY    80  68  66 S8        29.95R
$$

VAZ100-030400-
MARINE

STATION/POSITION TIME  TEMP    WIND        PRES    WAVE   SWELL
                       AIR SEA DIR/SP/G            HT/PER HT/PER
                 (UTC) (F)     (DEG/KT/KT) (MB)    (FT/S) (FT/S)
BRANDYWINE LGT   0200   77 76  210/ 10/ 10 1013.6R
CAPE MAY NJ      0200   74 77  160/  4/  5 1013.2R
LEWES DE         0200   75 77  200/  3/  4 1013.4R
15NM E FENWICK I 0250   79 80  200/  8/ 10 1013.4F   2/10   2/10
OCEAN-CITY-INLET 0200   77 76  200/  5/  5 1012.8R
WACHAPREAGUE VA  0200   79 84  180/  2/  4 1013.9R
GOOSES REEF MD   0300   81 83  220/  8/ 10 1014.1F
COVE POINT MD    0200   79     270/  5/  6 1014.1R
SOLOMONS ISLAND  0200      85                N/A
BISHOPS HEAD MD  0200   83 85  280/  7/  8 1012.7R
PINEY POINT MD   0200          280/  4/  5   N/A
POTOMAC MD       0300   82 83  240/  8/  8 1012.3F   0
CAMBRIDGE MD     0200   78 85  180/  2/  3 1012.6R
LEWISETTA VA     0200   79 85  280/  3/  4 1013.4R
RAPPAHANNOCK LGT 0200          140/  6/  7 1014.2R
STINGRAY PT      0300   82 83  200/  4/  6 1013.4F   0
YORK RVR RNG VA  0200   81     130/  5/  6 1013.2R
YORKTOWN VA      0200   79 84  180/  3/  4 1013.4R
JAMESTOWN VA     0300   76 85   30/  2/  4   N/A
DOMINION TERM VA 0200   81      80/  4/  5 1013.6R
KIPTOPEKE VA     0200      82   50/  2/  3   N/A
CHES BAY BRIDGE  0200   80 81  360/  3/  4 1013.2R
CAPE HENRY VA    0200   79     360/  5/  5   N/A
CHESAPEAKE LGHT  0200   81      60/  1/  2 1014.2R
WILLOUBY STN VA  0200   81      20/  2/  3 1014.6R
CAPE HENRY BUOY  0228      82                N/A     2/11   2/11
1ST LANDING BUOY 0300      80              1012.8F   1/ 5
CAPE CHARLES BUO 0226      80                N/A     2/13   2/13
OFFSHORE WE BUOY 0211      82                N/A     3/12   2/12
64NM E OF VA BCH 0250   82 81  230/ 14/ 16 1013.1R   3/ 4   2/12
DUCK PIER NC     0200   80 73  280/  3/  6 1012.8R
44100 DUCK FRF   0224      80                N/A     3/12   2/12
44056 DUCK FRF   0211      80                N/A     2/12   2/12
OREGON INLET NC  0200   83 86  210/ 19/ 22 1013.3R
HATTERAS NC      0200   80 83  230/ 11/ 16 1014.3R
DIAMOND SHLS NC  0250   82 85  240/ 14/ 17 1014.6R   4/ 4   2/11



USA.gov is the U.S. government's official web portal to all federal, state and local government web resources and services.